Huvudsida
METAR-TAF:

METAR-TAF

Flygplatser :

Normanton Airport

Normanton, Australien

latitud: 17-41-06S, longitud: 141-04-12E, höjd: 22 m

Aktuellt väderrapport

Denna rapport gjordes för 52 minuter sedan, klockan 09:00 UTC
Vind 6 kt från syd
Temperatur 28°C
Fuktighet 35%
Tryck 1014 hPa
Sikt 10 km eller mer

METAR: YNTN 270900Z AUTO 18006KT 9999 // NCD 28/11 Q1014

Tid: 19:52 (09:52 UTC)


TAF: saknas

Aktuella väderrapporter och prognoser från 4000 flygplatser (METAR- och TAF-rapporter).

De tillgängliga stationerna syns som gula och röda prickar på kartan.

För musen över prickarna för att se namnen på stationerna.

Klicka sedan för att få väderrapporter och prognoser.

För att ändra kartan: Klicka på de gröna knapparna med ett svart kors på för att zooma in; den gröna knappen med ett streck på för att zooma ut; eller på de gröna pilarna för angränsande kartor.


METAR-TAF: